Regional Weather Roundup
Issued by NWS Sterling, VA

Home | Current Version | Previous Version | Graphics & Text | Print | Product List | Glossary Off
Versions: 1 2 3 4 5 6 7 8 9 10 11 12 13 14 15 16 17 18 19 20 21 22 23 24 25 26 27 28 29 30 31 32 33 34 35 36 37 38 39 40 41 42 43 44 45 46 47 48 49 50

000
ASUS41 KLWX 170710
RWRLWX

REGIONAL WEATHER ROUNDUP
NATIONAL WEATHER SERVICE BALTIMORE MD/WASHINGTON DC
300 AM EDT WED SEP 17 2014

Note: "FAIR" indicates few or no clouds below 12,000 feet
with no significant weather and/or obstructions to visibility.
 TC=TEMPERATURE CELSIUS

 * =Non NWS site. Station does not report precipitation (e.g. rain,
    snow, etc.), thunder, or fog.

DCZ001-MDZ009-015-VAZ040>042-051-053>054-170800-
WASHINGTON METRO

CITY           SKY/WX    TMP DP  RH WIND       PRES   REMARKS
WASHINGTON NAT PTCLDY    62  51  67 N6        30.05S
DULLES         CLEAR     54  50  86 NW3       30.06S
ANDREWS AFB    CLEAR     59  52  77 N2        30.04S
QUANTICO       CLEAR     57  53  86 NW7       30.05S
COLLEGE PARK*  CLEAR     54  54 100 CALM      30.04S
LEESBURG*      CLEAR     54  54 100 CALM      30.06F
MANASSAS*      CLEAR     52  52 100 CALM      30.05F
GAITHERSBURG*  CLEAR     52  48  87 CALM      30.09S

$$

MDZ006>007-011-014-170800-
BALTIMORE METRO

CITY           SKY/WX    TMP DP  RH WIND       PRES   REMARKS
BWI AIRPORT    CLEAR     53  51  93 CALM      30.03F
MD SCIENCE CTR   N/A     61  52  72 MISG      30.04S
MARTIN STATE   CLEAR     55  54  94 CALM      30.05S
ANNAPOLIS      CLEAR     61  57  87 CALM      30.03S
FORT MEADE*    CLEAR     50  48  93 CALM      30.06F

$$

MDZ012-015-019>023-170800-
MARYLAND EASTERN SHORE

CITY           SKY/WX    TMP DP  RH WIND       PRES   REMARKS
OCEAN CITY     MOCLDY    60  57  89 CALM      30.01S
SALISBURY      PTCLDY    62  55  77 CALM      30.01F
BAY BRIDGE AP*   N/A     61  54  77 CALM      30.03F
CAMBRIDGE*     PTCLDY    61  54  77 NE5       30.01F
EASTON*        CLEAR     58  57  96 CALM      30.06F

$$

MDZ017>025-170800-
SOUTHERN MARYLAND

CITY           SKY/WX    TMP DP  RH WIND       PRES   REMARKS
PATUXENT RIVER PTCLDY    63  54  72 NE6       30.02F
ST INIGOES     PTCLDY    58  53  84 CALM      30.01F
LEONARDTOWN*   PTCLDY    55  52  88 CALM      30.04S

$$

MDZ003>005-170800-
NORTH CENTRAL MARYLAND

CITY           SKY/WX    TMP DP  RH WIND       PRES   REMARKS
FREDERICK*     FOG       52  50  93 CALM      30.09S VSB 1
HAGERSTOWN APT CLEAR     52  48  86 CALM      30.06S
WESTMINSTER*   CLEAR     52  48  87 CALM      30.06S

$$

MDZ501>502-170800-
WESTERN MARYLAND

CITY           SKY/WX    TMP DP  RH WIND       PRES   REMARKS
OAKLAND*       CLEAR     46  46 100 CALM      30.10F
CUMBERLAND*    CLEAR     48  46  93 CALM      30.13S

$$

VAZ025>031-170800-
SHENANDOAH VALLEY

CITY           SKY/WX    TMP DP  RH WIND       PRES   REMARKS
WINCHESTER*    CLEAR     50  46  87 W3        30.07F
STAUNTON*      PTCLDY    56  50  79 CALM      30.08F

$$

WVZ021-048>050-054>055-170800-
EASTERN WEST VIRGINIA PANHANDLE

CITY           SKY/WX    TMP DP  RH WIND       PRES   REMARKS
MARTINSBURG    CLEAR     49  45  86 CALM      30.07S
PETERSBURG*    CLEAR     44  42  93 CALM      30.10F FOG

$$

VAZ036>039-050-170800-
CENTRAL FOOTHILLS

CITY           SKY/WX    TMP DP  RH WIND       PRES   REMARKS
CHARLOTTESVILL CLEAR     56  52  86 N3        30.04F
ORANGE*        CLEAR     55  50  82 CALM      30.06F

$$

VAZ055>057-170800-
NORTH AND CENTRAL PIEDMONT

CITY           SKY/WX    TMP DP  RH WIND       PRES   REMARKS
FREDERICKSBRG* CLEAR     56  55  96 CALM      30.03F
STAFFORD*      CLEAR     52  52 100 CALM      30.08S

$$

NCZ024-NYZ072-PAZ021-071-VAZ022-071-170800-
OTHER REGIONAL OBSERVATIONS

CITY           SKY/WX    TMP DP  RH WIND       PRES   REMARKS
NEW YORK CITY  CLEAR     60  49  66 CALM      30.05S
PHILADELPHIA   CLEAR     59  51  75 NW6       30.04S
PITTSBURGH     PTCLDY    53  49  86 N3        30.08F
ROANOKE        MOCLDY    64  53  67 NE6       30.06F
RICHMOND       MOCLDY    64  56  75 N5        30.01F
RALEIGH        CLOUDY    69  66  90 CALM      29.97F

$$

ANZ530>537-170800-
MARINE OBSERVATIONS

STATION/POSITION TIME  TEMP    WIND        PRES
                       AIR SEA DIR/SP/G
                 (UTC) (F)     (DEG/KT/KT) (MB)
THOMAS PT LIGHT  0700   66 74   60/  8/  9 1017.8F
BALT KEY BRIDGE  0700   63     350/  3/  4 1017.1F
COVE POINT       0700   67      50/ 11/ 13 1016.3F
LEWISETTA        0700   69 74   40/  7/ 11 1016.0S
SOLOMONS ISLAND  0700      76                N/A
PINEY POINT      0700           50/  5/  6   N/A

$$



USA.gov is the U.S. government's official web portal to all federal, state and local government web resources and services.